• In United Kingdom
  • List of Countries
  • For 7 days
  • Water Temperature
  • Satellite Maps
  • Weather Map
  • Weather Widgets
  • user-avatar
    Login

    Hourly Weather Tarin Kowt

    Today, 22 February, Thursday

    Time Temperature Precipitation Wind Pressure Humidity
    00:00 +10°C° 0 mm 1 mps 616 mmHg 29%
    01:00 +10°C° 0 mm 1 mps 616 mmHg 28%
    02:00 +10°C° 0 mm 1 mps 615 mmHg 29%
    03:00 +9°C° 0 mm 1 mps 615 mmHg 29%
    04:00 +9°C° 0 mm 1 mps 615 mmHg 29%
    05:00 +9°C° 0 mm 1 mps 615 mmHg 29%
    06:00 +9°C° 0 mm 1 mps 615 mmHg 29%
    07:00 +9°C° 0 mm 1 mps 615 mmHg 29%
    08:00 +11°C° 0 mm 1 mps 616 mmHg 26%
    09:00 +12°C° 0 mm 1 mps 616 mmHg 22%
    10:00 +14°C° 0 mm 1 mps 617 mmHg 18%
    11:00 +15°C° 0 mm 1 mps 617 mmHg 18%
    12:00 +15°C° 0 mm 1 mps 617 mmHg 17%
    13:00 +16°C° 0 mm 2 mps 617 mmHg 17%
    14:00 +16°C° 0 mm 2 mps 616 mmHg 17%
    15:00 +16°C° 0 mm 2 mps 616 mmHg 17%
    16:00 +17°C° 0 mm 2 mps 616 mmHg 17%
    17:00 +15°C° 0 mm 2 mps 616 mmHg 21%
    18:00 +14°C° 0 mm 1 mps 616 mmHg 25%
    19:00 +13°C° 0 mm 1 mps 615 mmHg 28%
    20:00 +13°C° 0 mm 1 mps 615 mmHg 28%
    21:00 +12°C° 0 mm 1 mps 615 mmHg 28%
    22:00 +12°C° 0 mm 1 mps 616 mmHg 28%
    23:00 +12°C° 0 mm 1 mps 615 mmHg 27%

    Tomorrow, 23 February, Friday

    Time Temperature Precipitation Wind Pressure Humidity
    00:00 +12°C° 0 mm 2 mps 615 mmHg 27%
    01:00 +12°C° 0 mm 2 mps 615 mmHg 27%
    02:00 +12°C° 0 mm 2 mps 615 mmHg 27%
    03:00 +12°C° 0 mm 2 mps 614 mmHg 28%
    04:00 +11°C° 0 mm 3 mps 614 mmHg 28%
    05:00 +10°C° 0.1 mm 3 mps 614 mmHg 31%
    06:00 +10°C° 0.1 mm 3 mps 614 mmHg 34%
    07:00 +10°C° 0.1 mm 3 mps 614 mmHg 36%
    08:00 +9°C° 0.5 mm 3 mps 614 mmHg 40%
    09:00 +8°C° 0.5 mm 4 mps 614 mmHg 43%
    10:00 +8°C° 0.5 mm 4 mps 614 mmHg 47%
    11:00 +8°C° 0.6 mm 4 mps 613 mmHg 49%
    12:00 +8°C° 0.6 mm 4 mps 613 mmHg 51%
    13:00 +8°C° 0.6 mm 4 mps 612 mmHg 53%
    14:00 +8°C° 0.1 mm 4 mps 612 mmHg 52%
    15:00 +10°C° 0.1 mm 4 mps 612 mmHg 52%
    16:00 +10°C° 0.1 mm 4 mps 612 mmHg 52%
    17:00 +10°C° 0.1 mm 4 mps 612 mmHg 55%
    18:00 +9°C° 0.1 mm 3 mps 612 mmHg 58%
    19:00 +8°C° 0.1 mm 3 mps 612 mmHg 61%
    20:00 +8°C° 0.1 mm 2 mps 612 mmHg 63%
    21:00 +8°C° 0.1 mm 2 mps 612 mmHg 66%
    22:00 +8°C° 0.1 mm 2 mps 612 mmHg 68%
    23:00 +7°C° 0.2 mm 2 mps 612 mmHg 70%

    Day after tomorrow, 24 February, Saturday

    Time Temperature Precipitation Wind Pressure Humidity
    00:00 +7°C° 0.2 mm 2 mps 612 mmHg 71%
    01:00 +7°C° 0.2 mm 2 mps 612 mmHg 73%
    02:00 +8°C° 0.1 mm 1 mps 612 mmHg 75%
    03:00 +7°C° 0.1 mm 1 mps 612 mmHg 77%
    04:00 +7°C° 0.1 mm 1 mps 612 mmHg 79%
    05:00 +7°C° 0.1 mm 1 mps 613 mmHg 80%
    06:00 +7°C° 0.1 mm 1 mps 613 mmHg 80%
    07:00 +7°C° 0.1 mm 1 mps 614 mmHg 80%
    08:00 +7°C° 0 mm 2 mps 614 mmHg 74%
    09:00 +8°C° 0 mm 2 mps 615 mmHg 68%
    10:00 +9°C° 0 mm 2 mps 616 mmHg 63%
    11:00 +10°C° 0 mm 2 mps 616 mmHg 58%
    12:00 +12°C° 0 mm 2 mps 616 mmHg 53%
    13:00 +11°C° 0 mm 3 mps 616 mmHg 49%
    14:00 +13°C° 0 mm 2 mps 616 mmHg 47%
    15:00 +13°C° 0 mm 2 mps 616 mmHg 45%
    16:00 +13°C° 0 mm 2 mps 616 mmHg 43%
    17:00 +13°C° 0 mm 2 mps 616 mmHg 46%
    18:00 +12°C° 0 mm 1 mps 617 mmHg 49%
    19:00 +11°C° 0 mm 1 mps 617 mmHg 52%
    20:00 +11°C° 0 mm 1 mps 617 mmHg 53%
    21:00 +11°C° 0 mm 1 mps 617 mmHg 54%
    22:00 +10°C° 0 mm 1 mps 617 mmHg 55%
    23:00 +10°C° 0 mm 1 mps 617 mmHg 54%

    25 February, Sunday

    Time Temperature Precipitation Wind Pressure Humidity
    00:00 +9°C° 0 mm 2 mps 617 mmHg 53%
    01:00 +9°C° 0 mm 3 mps 617 mmHg 52%
    02:00 +9°C° 0 mm 3 mps 617 mmHg 52%
    03:00 +9°C° 0 mm 3 mps 617 mmHg 52%
    04:00 +9°C° 0 mm 3 mps 616 mmHg 52%
    05:00 +9°C° 0.1 mm 3 mps 617 mmHg 52%
    06:00 +9°C° 0.1 mm 3 mps 617 mmHg 52%
    07:00 +8°C° 0.1 mm 2 mps 618 mmHg 53%
    08:00 +8°C° 1.2 mm 3 mps 618 mmHg 56%
    09:00 +8°C° 1.2 mm 3 mps 618 mmHg 60%
    10:00 +8°C° 1.2 mm 3 mps 618 mmHg 64%
    11:00 +7°C° 2.6 mm 3 mps 617 mmHg 68%
    12:00 +7°C° 2.6 mm 3 mps 617 mmHg 72%
    13:00 +5°C° 2.6 mm 3 mps 616 mmHg 76%
    14:00 +5°C° 1.7 mm 3 mps 616 mmHg 77%
    15:00 +5°C° 1.7 mm 3 mps 616 mmHg 77%
    16:00 +5°C° 1.7 mm 3 mps 616 mmHg 77%
    17:00 +5°C° 1 mm 3 mps 616 mmHg 77%
    18:00 +5°C° 1 mm 3 mps 616 mmHg 77%
    19:00 +5°C° 1 mm 4 mps 617 mmHg 77%
    20:00 +6°C° 0.4 mm 4 mps 617 mmHg 78%
    21:00 +7°C° 0.4 mm 3 mps 617 mmHg 78%
    22:00 +7°C° 0.4 mm 3 mps 617 mmHg 78%
    23:00 +7°C° 0.6 mm 3 mps 617 mmHg 79%

    26 February, Monday

    Time Temperature Precipitation Wind Pressure Humidity
    00:00 +7°C° 0.6 mm 3 mps 616 mmHg 80%
    01:00 +7°C° 0.6 mm 3 mps 616 mmHg 81%
    02:00 +7°C° 0.4 mm 3 mps 616 mmHg 81%
    03:00 +7°C° 0.4 mm 3 mps 615 mmHg 82%
    04:00 +7°C° 0.4 mm 3 mps 615 mmHg 82%
    05:00 +7°C° 0.6 mm 3 mps 615 mmHg 82%
    06:00 +7°C° 0.6 mm 3 mps 615 mmHg 82%
    07:00 +8°C° 0.6 mm 3 mps 616 mmHg 83%
    08:00 +8°C° 0.6 mm 3 mps 616 mmHg 80%
    09:00 +8°C° 0.6 mm 3 mps 616 mmHg 78%
    10:00 +9°C° 0.6 mm 3 mps 617 mmHg 76%
    11:00 +8°C° 0.4 mm 4 mps 616 mmHg 74%
    12:00 +10°C° 0.4 mm 4 mps 616 mmHg 72%
    13:00 +10°C° 0.4 mm 4 mps 616 mmHg 70%
    14:00 +10°C° 0.5 mm 4 mps 616 mmHg 71%
    15:00 +10°C° 0.5 mm 4 mps 615 mmHg 72%
    16:00 +10°C° 0.5 mm 3 mps 615 mmHg 73%
    17:00 +9°C° 1 mm 3 mps 616 mmHg 77%
    18:00 +9°C° 1 mm 2 mps 616 mmHg 80%
    19:00 +8°C° 1 mm 2 mps 616 mmHg 83%
    20:00 +8°C° 0.7 mm 2 mps 616 mmHg 84%
    21:00 +8°C° 0.7 mm 2 mps 616 mmHg 84%
    22:00 +9°C° 0.7 mm 1 mps 617 mmHg 85%
    23:00 +8°C° 0.1 mm 1 mps 616 mmHg 85%

    27 February, Tuesday

    Time Temperature Precipitation Wind Pressure Humidity
    00:00 +8°C° 0.1 mm 1 mps 616 mmHg 86%
    01:00 +8°C° 0.1 mm 1 mps 616 mmHg 87%
    02:00 +7°C° 0 mm 1 mps 616 mmHg 86%
    03:00 +7°C° 0 mm 1 mps 616 mmHg 86%
    04:00 +7°C° 0 mm 1 mps 616 mmHg 85%
    05:00 +6°C° 0 mm 2 mps 617 mmHg 84%
    06:00 +7°C° 0 mm 2 mps 617 mmHg 82%
    07:00 +7°C° 0 mm 2 mps 618 mmHg 81%
    08:00 +8°C° 0 mm 2 mps 618 mmHg 73%
    09:00 +9°C° 0 mm 2 mps 618 mmHg 65%
    10:00 +12°C° 0 mm 2 mps 619 mmHg 56%
    11:00 +13°C° 0 mm 2 mps 619 mmHg 52%
    12:00 +13°C° 0 mm 1 mps 618 mmHg 48%
    13:00 +14°C° 0 mm 1 mps 618 mmHg 43%
    14:00 +14°C° 0 mm 1 mps 618 mmHg 42%
    15:00 +14°C° 0 mm 1 mps 618 mmHg 41%
    16:00 +15°C° 0 mm 1 mps 618 mmHg 40%
    17:00 +14°C° 0 mm 1 mps 618 mmHg 44%
    18:00 +13°C° 0 mm 1 mps 618 mmHg 48%
    19:00 +13°C° 0 mm 1 mps 618 mmHg 52%
    20:00 +12°C° 0 mm 1 mps 618 mmHg 52%
    21:00 +12°C° 0 mm 2 mps 618 mmHg 52%
    22:00 +10°C° 0 mm 2 mps 617 mmHg 52%
    23:00 +10°C° 0 mm 2 mps 617 mmHg 52%
    Show more